This is the latest recevied weather packets stored in our database for station/object KF4ERV-4. If no packets are shown the sender has not sent any weather packets the latest 10 day(s).
| Time | Temp. | Humidity | Pressure | Rain* | Wind** | Luminosity | Snow |
|---|---|---|---|---|---|---|---|
| 1778113195 | 15° C | 84% | 1015 hPa | 0 mm | - | - | - |
| 1778113145 | 15° C | 83% | 1015 hPa | 0 mm | - | - | - |
| 1778112898 | 15° C | 83% | 1015 hPa | 0 mm | - | - | - |
| 1778112564 | 15° C | 82% | 1015 hPa | 0 mm | - | - | - |
| 1778112333 | 15° C | 78% | 1015 hPa | 0 mm | - | - | - |
| 1778111725 | 15° C | 80% | 1014.9 hPa | 0 mm | - | - | - |
| 1778111694 | 15° C | 80% | 1014.9 hPa | 0 mm | - | - | - |
| 1778111393 | 15° C | 78% | 1015 hPa | 0 mm | - | - | - |
| 1778111154 | 15° C | 74% | 1014 hPa | 0 mm | - | - | - |
| 1778111129 | 15° C | 75% | 1014.2 hPa | 0 mm | - | - | - |
| 1778111095 | 15° C | 75% | 1014.2 hPa | 0 mm | - | - | - |
| 1778111086 | 15° C | 74% | 1014 hPa | 0 mm | - | - | - |
| 1778110831 | 15° C | 74% | 1014 hPa | 0 mm | - | - | - |
| 1778110797 | 15° C | 74% | 1014 hPa | 0 mm | - | - | - |
| 1778110534 | 15° C | 74% | 1014 hPa | 0 mm | - | - | - |
| 1778110501 | 15° C | 74% | 1014 hPa | 0 mm | - | - | - |
| 1778110192 | 15° C | 73% | 1014.5 hPa | 0 mm | - | - | - |
| 1778109698 | 15.56° C | 69% | 1015 hPa | 0 mm | - | - | - |
| 1778109663 | 15.56° C | 69% | 1015 hPa | 0 mm | - | - | - |
| 1778109662 | 15.56° C | 66% | 1015 hPa | 0 mm | - | - | - |
| 1778109618 | 15.56° C | 67% | 1015 hPa | 0 mm | - | - | - |
| 1778109374 | 15.56° C | 67% | 1015 hPa | 0 mm | - | - | - |
| 1778109302 | 15.56° C | 67% | 1015 hPa | 0 mm | - | - | - |
| 1778109085 | 15.56° C | 66% | 1015 hPa | 0 mm | - | - | - |
| 1778108994 | 15.56° C | 66% | 1015 hPa | 0 mm | - | - | - |
* Rain latest hour (hover to see other rain measurements)
** Current wind speed in m/s (hover to see current wind gust speed)